Location: Newark
(49.2191°N, 12.6671°E)
Time: 04:29:08
(UTC+00:00)

Transit 4A - Pass Details

Date: 24 January 2020
Orbit: 872 x 973 km, 66.8° (Epoch: 18 February)

Event Time Altitude Azimuth Distance (km) Brightness Sun altitude
Rises 09:31:25 0° 289° (WNW) 3,509 10.5 17.3°
Reaches altitude 10° 09:35:08 10° 312° (NW) 2,554 9.7 17.5°
Maximum altitude 09:38:28 15° 347° (NNW) 2,187 9.4 17.8°
Drops below altitude 10° 09:41:49 10° 22° (NNE) 2,536 9.9 18.0°
Sets 09:45:29 0° 45° (NE) 3,471 10.7 18.3°
